RH
33 37 47 69 100 86 97 98 92 73 43 46 66 60 57 60 47 49 44 44 36 44 38 32 28 25 22 18 13 11 10 10 12 12 10 11 12 9 7 10 44 27 51 97 100 100 48
38 42 49 61 100 100 100 100 82 53 50 61 45 44 48 38 48 44 42 45 42 30 21 17 16 13 11 9 8 7 7 7 7 8 8 8 8 8 7 9 17 32 62 100 100 100 82
41 44 51 95 100 100 100 91 60 50 52 49 41 51 37 47 60 52 52 47 42 29 18 12 8 7 6 6 6 6 6 5 5 5 5 6 6 6 6 7 13 27 47 92 100 100 95
62 63 99 99 100 100 98 64 51 43 55 45 37 33 39 52 81 66 43 40 28 26 18 9 6 6 5 5 5 4 4 4 4 4 5 5 5 5 5 8 13 18 32 84 99 100 100
85 96 99 98 100 88 66 55 54 61 52 37 32 40 50 75 59 56 35 27 26 24 16 7 6 5 5 4 4 4 4 3 4 4 5 6 4 5 5 7 10 17 24 56 79 100 99
100 100 100 98 81 69 69 56 56 63 41 32 37 42 45 62 75 54 40 30 27 24 14 7 6 5 4 3 3 3 3 3 3 3 4 5 4 4 4 5 7 13 26 45 76 100 98
100 97 100 100 79 78 83 70 78 49 37 37 26 31 46 55 63 55 43 31 34 29 11 6 5 4 4 4 2 3 3 3 3 3 4 4 4 4 5 4 8 11 28 72 100 100 100
100 84 97 100 84 82 65 77 60 41 33 32 30 35 47 56 59 48 40 22 25 18 8 5 5 4 3 3 3 3 3 2 3 3 3 4 3 5 5 5 6 8 25 65 94 100 68
94 71 88 100 96 77 72 71 50 42 32 28 29 34 33 55 65 50 35 20 17 12 7 5 4 4 4 3 3 3 3 2 3 3 3 3 4 6 5 5 6 9 20 79 95 100 95
77 59 80 100 87 81 63 60 41 48 36 30 31 25 36 50 45 50 40 30 13 10 7 6 5 4 3 3 3 3 3 2 2 2 3 4 4 4 5 5 6 9 25 87 100 100 96
55 50 66 95 85 87 51 44 58 38 34 40 27 44 36 42 48 44 38 29 13 10 7 6 5 4 3 3 3 3 2 3 2 2 3 3 4 5 5 5 6 11 26 79 100 100 100
51 47 64 83 89 91 60 69 65 51 49 36 27 38 34 53 53 59 45 34 16 10 7 6 5 4 4 4 3 3 2 2 3 2 3 4 4 4 6 6 6 12 28 52 100 100 100
45 39 65 77 78 85 100 72 89 53 47 33 29 36 52 59 63 47 44 40 16 10 8 6 5 4 4 3 3 3 2 2 3 3 3 4 4 5 7 7 6 11 22 56 100 100 89
44 38 55 72 74 86 87 85 93 57 52 36 48 43 69 86 46 40 50 37 24 9 9 7 6 5 4 4 3 3 3 3 3 4 3 3 4 5 7 7 7 10 24 51 88 98 78
39 42 53 65 62 75 71 62 96 85 81 43 57 61 76 65 38 48 50 36 22 9 7 6 7 6 5 4 4 3 3 3 3 4 4 3 4 5 7 8 7 10 22 39 82 72 87
39 39 44 41 47 76 71 59 57 90 81 57 66 95 52 54 66 61 42 52 32 14 9 7 7 5 5 3 4 4 3 3 3 3 5 3 5 6 7 9 8 9 22 37 44 72 61
39 39 32 31 30 76 70 66 62 85 99 69 78 98 46 64 60 46 53 68 45 18 9 8 8 7 6 4 5 4 4 3 3 3 5 4 4 6 7 10 10 10 14 31 30 74 69
36 33 29 27 28 60 64 62 74 80 96 83 84 70 58 63 71 52 48 55 44 17 9 8 8 8 7 7 5 6 5 4 3 4 5 5 4 6 7 10 12 11 12 15 21 48 74
41 37 28 28 28 45 45 51 63 78 96 88 57 87 54 81 57 63 54 56 58 13 9 9 8 7 6 8 5 5 5 4 4 4 4 6 5 5 7 9 12 14 12 10 14 34 90
33 32 30 29 28 37 44 44 62 72 100 88 84 84 48 57 42 49 49 87 46 17 10 8 9 9 7 7 8 5 6 5 4 4 4 5 6 5 7 9 12 12 9 10 13 29 98
26 25 26 26 27 29 30 40 67 72 100 92 89 62 53 36 49 42 58 71 78 14 11 9 10 9 9 9 9 7 6 6 5 4 4 5 7 6 7 8 10 12 11 9 10 20 78
23 24 25 25 25 27 28 39 70 75 100 84 74 50 49 46 46 54 64 59 59 12 10 10 9 9 10 9 9 9 7 8 6 5 5 5 6 8 7 7 8 9 11 11 10 17 59
22 26 24 26 25 28 25 58 70 96 92 77 54 41 39 45 65 60 60 65 41 11 10 10 10 9 10 10 10 12 9 8 8 6 6 5 6 7 9 7 8 8 12 14 11 12 40
21 26 22 24 26 24 23 75 87 97 76 60 46 36 47 59 74 57 80 76 54 12 10 9 9 9 9 10 10 14 10 9 8 8 6 6 5 6 7 10 8 8 9 13 12 12 22
19 24 22 23 26 22 53 86 100 82 67 47 61 52 64 57 68 75 85 72 33 11 11 10 10 9 9 11 11 11 14 11 9 8 8 6 7 6 7 9 11 8 8 10 13 12 14
21 22 23 27 20 40 88 100 86 63 57 52 46 57 45 58 66 78 66 62 32 12 11 10 9 9 9 10 10 14 17 13 11 9 9 9 7 8 6 7 10 12 10 9 12 15 12
23 23 26 22 22 94 98 85 57 52 78 48 44 40 44 62 73 88 92 37 16 11 11 10 10 10 10 10 11 12 17 16 12 11 10 10 9 8 8 7 7 9 12 11 9 12 15
23 25 22 19 81 92 84 59 84 80 45 42 33 43 46 55 79 82 85 36 17 11 11 11 11 12 12 14 15 16 17 18 15 12 11 10 10 10 8 9 8 7 9 12 12 10 10
24 21 20 87 83 81 60 67 70 52 36 39 38 44 45 61 81 98 38 26 13 12 11 11 12 13 17 20 21 20 17 15 16 14 12 11 12 12 10 9 8 10 7 7 10 12 11
Wind_Speed
31 35 42 43 46 50 54 55 63 70 73 77 79 81 84 87 93 103 109 111 116 112 111 107 104 100 98 99 98 93 90 89 92 96 96 94 93 84 78 71 82 71 66 64 65 68 62
34 39 47 48 50 52 51 58 67 73 75 80 83 85 89 96 101 106 110 112 113 114 116 112 103 97 92 89 86 84 83 88 85 87 93 92 91 86 85 76 76 71 72 71 73 70 69
41 46 46 48 49 52 55 63 70 73 79 84 86 88 90 96 107 110 115 117 117 118 117 111 100 92 85 79 76 78 79 79 85 79 81 84 83 83 79 74 74 80 84 80 80 71 70
38 39 46 48 51 51 58 66 73 74 82 86 88 89 92 106 117 116 117 120 121 119 115 107 96 84 76 72 72 71 70 70 70 67 68 73 71 73 76 80 84 81 87 88 85 80 76
40 42 48 51 55 55 62 69 72 80 82 89 89 94 105 114 117 126 124 123 124 121 117 102 91 84 78 73 67 64 67 66 65 66 67 74 70 70 75 82 86 88 89 93 91 84 83
50 48 54 56 55 58 63 67 73 80 86 94 94 106 109 120 131 127 128 126 123 120 115 99 85 77 77 72 68 62 57 56 55 56 62 69 70 66 70 84 85 86 86 89 88 85 86
49 54 57 56 56 61 64 69 78 81 89 92 99 110 120 129 130 129 129 123 114 119 112 92 78 71 67 66 58 55 50 47 47 50 57 66 70 67 66 73 77 81 77 82 82 79 82
49 58 61 59 58 63 65 75 80 87 92 97 103 114 127 124 129 131 133 128 121 116 108 87 79 74 69 63 53 44 41 39 39 45 53 57 56 65 69 74 79 81 82 88 91 90 88
52 59 64 63 62 64 70 77 83 90 95 101 105 117 124 130 138 136 133 130 126 119 108 95 82 74 71 69 53 41 33 31 32 38 42 42 53 68 69 72 82 82 80 92 94 96 94
55 60 64 67 69 71 76 81 89 93 98 105 113 121 121 131 137 136 135 134 127 122 110 94 80 70 63 57 47 39 30 26 27 30 33 39 61 70 73 75 82 84 85 97 101 102 99
57 61 65 69 71 77 82 87 89 99 103 106 116 119 126 125 144 151 140 135 130 121 112 93 82 74 72 59 44 34 25 23 21 25 34 48 58 68 72 69 83 84 91 100 105 105 103
58 61 66 70 75 82 88 88 96 101 108 115 117 125 125 134 147 156 150 141 136 125 111 95 83 70 65 54 40 32 22 20 17 24 33 40 52 60 69 75 82 92 97 101 111 110 107
60 63 65 70 75 83 89 93 98 104 110 115 121 131 129 142 149 152 150 149 137 123 115 94 80 70 65 51 40 29 22 16 15 25 31 42 51 64 74 77 86 96 99 105 118 119 111
61 63 66 72 74 81 87 95 101 105 112 116 128 135 137 144 152 151 150 151 140 122 114 98 82 74 63 50 41 30 20 13 15 24 31 41 53 64 75 77 80 93 100 111 121 117 106
61 64 69 74 79 82 86 94 101 109 113 116 127 134 137 145 151 152 153 149 140 126 113 97 82 74 68 52 42 32 20 12 13 22 30 37 47 58 74 80 81 91 104 108 115 109 103
61 65 69 75 81 84 88 94 101 108 116 123 125 130 136 143 148 154 148 149 142 133 114 100 85 74 63 51 44 36 22 12 8 19 27 34 46 59 69 77 77 87 99 104 106 107 104
62 66 72 78 82 87 90 95 101 108 116 122 125 127 138 143 148 149 145 153 146 134 114 97 83 77 68 58 46 39 27 14 6 14 23 30 44 54 64 76 81 84 99 108 100 106 108
65 71 75 80 85 89 94 100 103 108 114 121 123 130 135 139 147 147 148 149 147 132 114 98 83 74 67 60 47 39 30 18 6 9 19 28 40 52 63 74 80 81 93 102 96 103 110
69 74 77 83 89 94 98 103 106 109 115 118 126 131 134 139 143 145 148 153 154 130 112 94 81 71 61 54 47 37 30 21 11 6 15 26 35 49 62 74 80 83 89 90 92 102 110
70 75 79 84 89 95 100 105 107 109 115 120 125 130 135 142 143 147 146 161 143 130 114 94 81 73 68 56 51 40 35 24 15 8 11 22 31 45 57 68 77 81 82 89 98 103 110
73 76 81 86 91 97 102 106 107 110 115 119 124 130 136 141 140 147 148 154 152 126 110 92 78 69 62 56 48 43 35 29 17 11 10 18 29 38 54 65 73 78 77 82 92 100 109
75 79 84 89 94 99 105 108 108 111 115 118 124 131 136 140 142 146 151 147 149 127 104 90 77 67 60 54 46 43 36 30 22 9 10 15 25 34 46 58 66 73 79 81 88 97 106
79 81 86 91 96 103 104 106 107 113 115 118 124 130 133 138 148 147 150 152 138 117 102 87 75 67 59 54 46 44 38 29 24 17 6 14 20 30 37 51 58 66 77 82 84 93 104
80 84 88 93 99 104 106 104 108 113 116 121 127 131 135 141 149 148 150 151 139 116 100 84 72 65 58 51 43 40 39 32 25 20 13 8 18 24 33 39 53 62 72 83 84 90 102
82 86 89 94 102 102 101 104 110 111 117 125 125 131 138 141 147 148 151 142 136 117 99 83 73 63 58 50 42 38 38 36 27 21 16 11 10 21 29 36 43 54 63 74 84 88 98
84 86 91 101 98 96 100 106 106 112 120 123 129 134 140 141 144 149 150 139 127 111 97 85 73 64 56 48 41 37 40 37 30 24 17 13 10 13 24 33 42 48 56 66 80 88 94
87 90 97 96 92 95 100 103 110 116 118 126 132 137 137 139 147 155 147 136 120 106 90 78 70 64 53 46 41 39 41 40 33 26 20 15 12 13 17 27 38 47 52 61 71 83 91
90 94 93 90 91 97 98 107 108 115 122 128 134 138 133 144 153 155 152 140 119 100 84 73 67 60 52 46 44 44 44 41 37 29 22 18 15 14 17 22 30 40 51 59 64 73 84
91 89 87 87 93 93 102 104 111 120 128 131 135 139 140 149 156 159 144 132 113 95 81 69 62 52 47 46 46 49 48 43 38 31 27 20 18 17 18 22 27 33 42 52 61 66 75
Wind_Direction
341 334 328 329 333 340 334 332 334 337 340 340 338 340 339 338 332 332 329 326 323 323 318 313 309 305 300 295 288 283 278 273 267 263 261 259 254 253 254 242 233 228 223 223 224 231 225
332 331 329 328 333 335 329 332 340 338 340 341 340 337 335 337 337 334 331 328 324 322 319 318 312 307 303 298 291 283 275 273 265 260 259 256 253 249 247 238 231 226 219 216 220 226 227
327 327 329 331 328 331 334 340 339 337 339 340 338 339 338 340 340 335 334 330 325 323 322 320 317 313 308 301 292 285 278 271 270 264 256 254 249 244 242 236 227 221 216 212 215 219 224
335 336 337 337 336 336 339 339 339 339 338 339 339 341 342 343 343 338 333 330 325 327 325 323 320 317 312 302 294 288 281 275 269 264 256 252 246 239 234 229 223 221 217 210 209 213 220
342 338 343 343 343 344 342 340 341 342 341 339 341 341 346 343 342 341 335 331 330 331 327 326 325 322 313 305 298 291 283 277 268 260 251 246 243 234 227 224 220 217 215 212 207 208 217
338 344 347 347 349 346 342 341 342 344 342 339 343 346 346 346 345 342 340 338 334 333 332 330 325 323 316 312 309 299 285 276 267 257 246 240 237 233 226 221 216 216 210 211 209 207 214
344 346 348 348 348 344 340 340 344 344 341 342 338 346 345 346 345 342 340 340 338 337 333 329 330 326 317 317 313 300 290 276 264 251 240 232 227 225 223 224 214 212 209 207 205 212 216
337 342 342 346 345 343 342 342 347 344 343 342 344 349 346 347 345 345 343 341 342 340 336 336 337 332 326 325 318 305 292 278 260 246 238 230 223 221 217 215 211 207 201 202 202 208 213
336 339 343 345 345 343 341 343 345 343 346 345 343 347 350 348 346 348 346 346 345 343 343 341 339 341 337 327 324 311 296 280 257 244 237 228 214 214 215 208 208 201 200 199 201 206 210
337 338 343 345 347 343 342 345 345 346 345 347 345 346 351 352 350 348 349 350 346 348 346 344 344 340 337 332 325 313 300 283 259 242 229 211 212 209 210 203 202 200 195 199 198 207 210
336 339 341 343 346 346 345 347 347 347 345 347 347 349 350 351 354 352 350 350 350 350 348 346 344 346 343 343 335 321 305 284 260 236 221 211 207 205 205 204 198 194 194 197 199 205 208
334 336 339 343 349 349 347 346 346 346 346 348 350 352 352 350 349 349 352 352 352 352 349 349 348 350 346 341 337 326 311 284 254 234 218 210 207 203 203 202 199 195 194 197 200 205 207
331 333 337 344 347 347 346 345 343 345 347 349 351 352 351 351 351 349 351 354 351 351 352 350 348 350 347 347 343 338 315 283 240 230 215 208 200 200 203 201 199 195 196 195 199 205 206
329 333 337 342 344 344 344 343 345 344 346 347 346 348 351 352 350 351 352 353 353 352 354 350 351 350 353 353 349 347 328 289 234 224 217 204 198 199 201 201 201 198 196 198 200 205 204
328 332 337 339 341 344 343 342 343 342 343 345 346 348 352 350 352 352 352 353 353 351 352 351 353 351 353 356 357 354 339 305 242 218 218 205 198 198 200 201 201 198 199 201 201 204 203
328 331 336 337 339 342 341 342 341 341 343 344 346 348 351 351 351 352 352 355 352 352 353 351 351 352 355 357 3 355 347 326 257 220 215 204 196 197 200 204 200 202 200 204 202 203 207
329 332 335 336 338 339 339 340 340 340 341 343 346 347 351 352 352 351 356 356 354 351 352 352 352 354 353 358 4 359 353 337 289 228 214 208 200 196 200 202 202 202 202 205 202 203 208
330 331 334 335 336 337 339 339 339 339 342 343 344 346 350 350 349 351 355 355 353 352 352 352 352 355 354 355 4 4 353 341 316 232 216 211 203 197 199 202 203 205 206 206 203 205 208
328 330 333 333 335 335 337 337 337 339 341 343 344 345 347 349 352 351 354 355 355 352 351 352 352 353 356 354 360 10 3 348 323 242 220 212 208 200 201 202 203 204 207 207 204 206 208
329 329 330 331 332 333 334 336 336 338 340 342 345 344 347 348 351 350 354 353 353 351 351 352 352 352 354 355 358 6 8 356 333 280 225 216 215 205 202 206 207 207 208 204 204 206 206
326 328 329 330 329 331 333 335 337 338 339 341 345 344 350 348 350 350 352 354 352 352 352 350 351 352 353 351 354 4 7 0 347 304 241 223 217 214 205 207 209 211 209 208 206 205 207
324 326 326 327 328 331 333 333 335 337 339 343 344 344 349 350 352 351 351 351 353 351 352 349 349 351 352 351 350 1 5 3 350 337 261 224 220 219 212 213 212 211 210 209 208 205 207
323 325 325 326 328 330 332 333 336 337 339 342 343 343 349 352 350 350 351 350 351 351 351 350 349 350 351 352 349 354 2 1 358 343 288 233 217 218 220 216 215 213 212 211 210 206 206
321 325 325 325 328 331 333 334 336 339 342 340 342 347 349 351 351 350 352 351 348 350 350 350 350 350 350 351 350 351 357 1 357 350 332 255 222 213 217 219 217 217 214 213 211 209 208
321 323 323 325 330 332 332 336 337 341 342 339 345 347 347 350 351 351 350 350 350 348 349 348 348 349 347 349 347 349 358 355 356 348 341 314 240 219 208 214 217 221 218 215 216 212 212
319 323 323 328 331 331 334 336 339 341 340 342 343 346 347 348 350 351 350 348 349 348 346 346 346 346 348 348 349 350 351 355 351 346 338 327 290 237 219 211 213 218 220 218 216 217 216
320 322 325 329 329 330 335 337 339 340 340 340 345 346 346 349 350 349 350 349 346 348 346 345 344 344 348 349 348 348 348 350 349 344 334 324 306 273 236 222 214 215 217 220 221 219 218
320 322 327 327 328 333 335 336 340 340 340 342 346 347 348 347 348 349 349 348 345 347 346 345 344 345 348 348 347 343 343 343 343 339 332 318 301 280 257 234 227 220 218 220 220 222 221
320 323 325 327 332 332 335 337 336 336 342 344 347 346 346 348 348 348 348 348 347 345 346 346 344 347 346 344 341 337 337 338 337 331 326 315 298 283 268 255 236 230 225 222 223 220 222